TimeCST,TemperatureF,Dew PointF,Humidity,Sea Level PressureIn,VisibilityMPH,Wind Direction,Wind SpeedMPH,Gust SpeedMPH,PrecipitationIn,Events,Conditions,WindDirDegrees,DateUTC
12:53 AM,41.0,33.1,73,30.36,10.0,SSE,10.4,-,N/A,,Clear,150,2012-11-17 06:53:00
1:53 AM,39.9,33.1,77,30.36,10.0,SSE,6.9,-,N/A,,Clear,160,2012-11-17 07:53:00
2:53 AM,37.9,32.0,79,30.37,10.0,SSE,8.1,-,N/A,,Clear,150,2012-11-17 08:53:00
3:53 AM,39.0,32.0,76,30.36,10.0,SSE,9.2,-,N/A,,Clear,150,2012-11-17 09:53:00
4:53 AM,39.0,30.9,73,30.36,10.0,SSE,10.4,-,N/A,,Clear,160,2012-11-17 10:53:00
5:53 AM,39.0,30.9,73,30.37,10.0,SSE,10.4,-,N/A,,Clear,160,2012-11-17 11:53:00
6:53 AM,39.0,30.9,73,30.37,10.0,SSE,11.5,-,N/A,,Mostly Cloudy,150,2012-11-17 12:53:00
7:53 AM,42.1,32.0,67,30.38,10.0,SSE,11.5,-,N/A,,Mostly Cloudy,160,2012-11-17 13:53:00
8:53 AM,46.0,33.1,61,30.39,10.0,South,11.5,-,N/A,,Mostly Cloudy,170,2012-11-17 14:53:00
9:53 AM,52.0,34.0,50,30.38,10.0,South,10.4,-,N/A,,Mostly Cloudy,170,2012-11-17 15:53:00
10:53 AM,55.9,33.1,42,30.38,10.0,South,12.7,-,N/A,,Mostly Cloudy,180,2012-11-17 16:53:00
11:53 AM,57.9,33.1,39,30.35,10.0,South,17.3,23.0,N/A,,Mostly Cloudy,170,2012-11-17 17:53:00
12:53 PM,61.0,26.1,26,30.32,10.0,South,18.4,-,N/A,,Scattered Clouds,180,2012-11-17 18:53:00
1:53 PM,60.1,30.9,33,30.30,10.0,South,16.1,24.2,N/A,,Scattered Clouds,180,2012-11-17 19:53:00
2:53 PM,60.1,32.0,35,30.29,10.0,South,12.7,-,N/A,,Scattered Clouds,180,2012-11-17 20:53:00
3:53 PM,57.9,30.9,36,30.28,10.0,South,13.8,-,N/A,,Scattered Clouds,170,2012-11-17 21:53:00
4:53 PM,54.0,28.0,37,30.27,10.0,SSE,12.7,-,N/A,,Scattered Clouds,160,2012-11-17 22:53:00
5:53 PM,50.0,28.9,44,30.28,10.0,SSE,8.1,-,N/A,,Partly Cloudy,150,2012-11-17 23:53:00
6:53 PM,45.0,28.9,53,30.29,10.0,SSE,8.1,-,N/A,,Clear,150,2012-11-18 00:53:00
7:53 PM,43.0,30.0,60,30.30,10.0,SE,8.1,-,N/A,,Clear,140,2012-11-18 01:53:00
8:53 PM,45.0,30.9,58,30.29,10.0,SSE,9.2,-,N/A,,Clear,160,2012-11-18 02:53:00
9:53 PM,44.1,30.9,60,30.28,10.0,SSE,9.2,-,N/A,,Clear,150,2012-11-18 03:53:00
10:53 PM,46.0,30.9,56,30.26,10.0,SSE,10.4,-,N/A,,Clear,150,2012-11-18 04:53:00
11:53 PM,44.1,30.0,58,30.27,10.0,SSE,10.4,-,N/A,,Clear,160,2012-11-18 05:53:00